Terug naar catalogus

METEOR 2-17 DEB

ActiefPO
NORAD 28992·DEBRIS·🇷🇺 Russia

Gelanceerd Jan 30, 1988 vanaf Plesetsk Cosmodrome

Loading…

Volgende Passages (komende 24 uur)

TLE

VersSource: Space-Track

Epoch: Sep 14, 2026, 14:40 UTC

1 28992U 88005G   26257.61146128  .00000451  00000-0  29234-3 0  9995
2 28992  82.5396 207.0108 0009901  40.1630  81.5124 14.00689690673062

Volg METEOR 2-17 DEB in realtime met AllMySat

Download on the App Store